Regional Weather Roundup
Issued by NWS

Home | Current Version | Previous Version | Text Only | Print | Product List | Glossary On
Versions: 1 2 3 4 5 6 7 8 9 10 11 12 13 14 15 16 17 18 19 20 21 22 23 24 25 26 27 28 29 30 31 32 33 34 35 36 37 38 39 40 41 42 43 44 45 46 47 48 49 50
000
ASUS46 KPQR 311010
RWROR

OREGON REGIONAL WEATHER ROUNDUP
NATIONAL WEATHER SERVICE PORTLAND OR
200 AM PST SAT JAN 31 2015

NOTE: "FAIR" INDICATES FEW OR NO CLOUDS BELOW 12,000 FEET WITH
NO SIGNIFICANT WEATHER AND/OR OBSTRUCTIONS TO VISIBILITY.

ORZ001>013-311100-
NORTHWEST OREGON


CITY           SKY/WX    TMP DP  RH WIND       PRES   REMARKS
ASTORIA        FOG       35  34  96 CALM      30.21R VSB 1/4
NEWPORT        CLEAR     43  37  81 CALM      30.20R
PORTLAND       PTCLDY    36  35  96 NW3       30.23S
VANCOUVER WA   CLEAR     31  29  92 CALM      30.23S
SCAPPOOSE      FOG       33  32  96 CALM      30.23S VSB 1/4
HILLSBORO      FOG       31  31 100 CALM      30.22R VSB 1/2
AURORA         CLEAR     34  32  92 NW3       30.23R
MCMINNVILLE    FOG       34  33  96 SE3       30.23R VSB 1/4
SALEM          CLEAR     34  32  92 CALM      30.21S
CORVALLIS      CLOUDY    37  34  87 CALM      30.22S VSB<1/4
EUGENE         FOG       40  39  97 SW5       30.22R VSB 1/4
$$

ORZ021-028-311100-
SOUTHWEST OREGON


CITY           SKY/WX    TMP DP  RH WIND       PRES   REMARKS
NORTH BEND     MOCLDY    43  43 100 CALM      30.15F VSB 3/4
BROOKINGS      CLEAR     55  37  50 CALM      30.06F
ROSEBURG       CLOUDY    47  42  83 CALM      30.20F
SEXTON SUMMIT  CLEAR     48  24  39 E6        30.15S
MEDFORD        CLEAR     34  32  92 CALM      30.19S FOG
$$

ORZ014>016-041-311100-
COLUMBIA GORGE


CITY           SKY/WX    TMP DP  RH WIND       PRES   REMARKS
TROUTDALE      CLEAR     41  33  73 E9        30.22R
THE DALLES     CLOUDY    40  34  79 CALM      30.28F
$$

ORZ029>031-041-044-049-050-061>064-502-503-505>511-311100-
EASTERN OREGON


CITY           SKY/WX    TMP DP  RH WIND       PRES   REMARKS
REDMOND        CLOUDY    31  30  96 SE7       30.23S WCI  24
BEND           FOG       28  28 100 CALM      30.23S VSB 1/4
PRINEVILLE     CLOUDY    32  32 100 SE5       30.23S WCI  27
KLAMATH FALLS  PTCLDY    24  17  74 N3        30.17S
LAKEVIEW       CLEAR     28  21  74 NW14      30.16S WCI  17
HERMISTON      CLOUDY    37  34  89 SE3       30.28S
PENDLETON      CLOUDY    34  32  92 N3        30.24S
JOHN DAY       CLOUDY    31  30  95 E3        30.23S
MEACHAM        CLEAR     21  17  84 CALM      30.17R
LA GRANDE      CLEAR     25  18  74 CALM      30.18R
BAKER CITY     CLEAR     21  19  92 CALM      30.16S
BURNS          FOG       28  27  96 NE3       30.17S VSB 1/2
ROME             N/A     21  18  88 SW7       30.13S WCI  12
ONTARIO        CLEAR     25  23  92 CALM      30.18R
$$



USA.gov is the U.S. government's official web portal to all federal, state and local government web resources and services.